Вернуться в каталог

COSMOS 2204

GLONASS

АктивенНавигацияMEO
NORAD 22057·PAYLOAD·🇷🇺 Russia

Запущен Jul 30, 1992 с Baikonur Cosmodrome

Loading…

Ближайшие Пролёты (ближайшие 24 часа)

TLE

СвежийSource: Space-Track

Эпоха: Sep 9, 2026, 11:19 UTC

1 22057U 92047B   26252.47184186 -.00000007  00000-0  00000-0 0  9992
2 22057  64.0989 299.3048 0015763 343.5913  13.8752  2.13102682265328

Отслеживайте COSMOS 2204 в реальном времени с AllMySat

Download on the App Store